Location: El Recuerdo
(3.6589°N, 75.6172°W)
Time: 21:08:44
(UTC+00:00)

Meteor 1-5 Rocket - Pass Details

Date: 18 March 2026
Orbit: 787 x 914 km, 81.2° (Epoch: 11 April)

Event Time Altitude Azimuth Distance (km) Brightness Sun altitude
Rises 23:52:28 0° 210° (SSW) 3,541 7.9 -10.5°
Reaches altitude 10° 23:55:25 10° 224° (SW) 2,600 7.4 -11.2°
Maximum altitude 00:00:03 24° 275° (W) 1,799 7.0 -12.4°
Drops below altitude 10° 00:04:40 10° 327° (NNW) 2,575 7.2 -13.5°
Sets 00:07:36 0° 341° (NNW) 3,499 7.7 -14.3°
